Location: Detroit
(42.3310°N, 83.0460°W)
Time: 00:58:28
(UTC-04:00)

A-11 Canister half - Pass Details

Date: 10 February 2023
Orbit: 1526 x 1682 km, 47.3° (Epoch: 20 March)

Event Time Altitude Azimuth Distance (km) Brightness Sun altitude
Rises 09:26:23 0° 293° (WNW) 4,683 11.0 17.1°
Reaches altitude 10° 09:29:24 10° 294° (WNW) 3,705 10.5 17.5°
Maximum altitude 09:38:48 89° 206° (SSW) 1,559 9.4 18.8°
Drops below altitude 10° 09:48:26 10° 117° (ESE) 3,794 12.8 20.2°
Sets 09:51:33 0° 118° (ESE) 4,798 12.9 20.6°
